CW4141 Weather Reports


Display with metric or nautical units.
time (UTC)temp
F
wind
direction
speed
MPH
gust
MPH
rain 1hr
in
rain 24hr
in
rain mn
in
humidity
%
barometer
mb
20260507063053 58 0 0.0 0.0 0.00 0.00 0.00 70 1020.2
20260507063046 58 141 0.0 0.0 0.00 0.00 0.00 71 1015.5
20260507061552 58 0 0.0 0.0 0.00 0.00 0.00 69 1020.1
20260507061545 58 141 0.0 0.0 0.00 0.00 0.00 70 1015.5
20260507060110 59 0 0.0 0.0 0.00 0.00 0.00 69 1020.1
20260507060056 59 141 0.0 0.0 0.00 0.00 0.00 69 1015.5
20260507054557 59 0 0.0 0.0 0.00 0.00 0.00 68 1020.2
20260507054547 59 141 0.0 0.0 0.00 0.00 0.00 69 1015.6
20260507053058 60 0 0.0 0.0 0.00 0.00 0.00 68 1020.3
20260507053050 60 141 0.0 0.0 0.00 0.00 0.00 68 1015.7
20260507051605 60 0 0.0 0.0 0.00 0.00 0.00 67 1020.2
20260507051543 60 141 0.0 0.0 0.00 0.00 0.00 68 1015.6
20260507050051 60 0 0.0 2.0 0.00 0.00 0.00 67 1020.2
20260507050044 60 141 0.0 0.0 0.00 0.00 0.00 67 1015.6
20260507044556 61 0 0.0 1.0 0.00 0.00 0.00 67 1020.1
20260507044542 61 141 0.0 1.0 0.00 0.00 0.00 68 1015.5
20260507043055 61 141 0.0 3.0 0.00 0.00 0.00 67 1019.9
20260507043042 61 141 0.0 3.0 0.00 0.00 0.00 67 1015.4
20260507041559 61 0 0.0 2.0 0.00 0.00 0.00 66 1019.9
20260507041540 61 141 0.0 2.0 0.00 0.00 0.00 66 1015.3
20260507040057 62 0 0.0 2.0 0.00 0.00 0.00 65 1019.8
20260507040042 62 141 0.0 2.0 0.00 0.00 0.00 65 1015.1
20260507034552 63 141 0.0 3.0 0.00 0.00 0.00 64 1014.9
20260507033053 64 0 0.0 3.0 0.00 0.00 0.00 63 1019.3
20260507033043 64 141 0.0 3.0 0.00 0.00 0.00 63 1014.7
20260507031555 64 0 0.0 3.0 0.00 0.00 0.00 62 1019.2
20260507031539 64 141 0.0 3.0 0.00 0.00 0.00 63 1014.6
20260507030052 65 0 0.0 4.0 0.00 0.00 0.00 61 1018.9
20260507030040 65 141 0.0 4.0 0.00 0.00 0.00 62 1014.5
20260507024556 66 140 1.0 4.0 0.00 0.00 0.00 61 1018.8
20260507024551 66 140 1.0 4.0 0.00 0.00 0.00 61 1014.4
20260507023053 67 0 0.0 6.0 0.00 0.00 0.00 59 1018.5
20260507023037 67 137 0.0 5.0 0.00 0.00 0.00 60 1014.2
20260507021555 68 196 0.0 6.0 0.00 0.00 0.00 59 1018.5
20260507021545 68 196 0.0 6.0 0.00 0.00 0.00 59 1014.1
20260507020103 68 0 1.0 6.0 0.00 0.00 0.00 58 1018.4
20260507020036 68 186 1.0 4.0 0.00 0.00 0.00 58 1014.0
20260507014557 69 209 0.0 6.0 0.00 0.00 0.00 56 1018.2
20260507014541 69 209 0.0 6.0 0.00 0.00 0.00 56 1013.8
20260507013050 70 0 1.0 7.0 0.00 0.00 0.00 55 1018.1
20260507013035 70 216 0.0 7.0 0.00 0.00 0.00 55 1013.6
20260507011554 71 134 1.0 9.0 0.00 0.00 0.00 53 1018.0
20260507011541 71 132 2.0 6.0 0.00 0.00 0.00 54 1013.6
20260507010110 72 0 1.0 8.0 0.00 0.00 0.00 53 1017.7
20260507010034 72 135 0.0 7.0 0.00 0.00 0.00 53 1013.5
20260507004602 73 221 0.0 6.0 0.00 0.00 0.00 51 1017.8
20260507004533 73 230 1.0 6.0 0.00 0.00 0.00 52 1013.4
20260507003052 74 206 2.0 6.0 0.00 0.00 0.00 50 1017.6
20260507003032 74 206 1.0 6.0 0.00 0.00 0.00 50 1013.1
20260507001603 75 221 2.0 6.0 0.00 0.00 0.00 49 1017.4
20260507001540 75 222 2.0 6.0 0.00 0.00 0.00 49 1013.0
20260507000056 76 210 1.0 8.0 0.00 0.00 0.00 49 1017.3
20260507000031 76 210 1.0 8.0 0.00 0.00 0.00 49 1012.9
20260506234600 77 218 1.0 7.0 0.00 0.00 0.00 47 1017.1
20260506234530 77 218 1.0 7.0 0.00 0.00 0.00 47 1012.8
20260506233058 78 221 1.0 8.0 0.00 0.00 0.00 46 1017.0
20260506233029 78 221 1.0 8.0 0.00 0.00 0.00 46 1012.9
20260506231610 78 222 2.0 6.0 0.00 0.00 0.00 44 1017.2
20260506231528 78 223 1.0 6.0 0.00 0.00 0.00 45 1012.9
20260506230109 80 0 0.0 7.0 0.00 0.00 0.00 41 1017.0
20260506230028 80 213 0.0 7.0 0.00 0.00 0.00 42 1012.9
20260506224553 81 223 0.0 7.0 0.00 0.00 0.00 40 1017.0
20260506224527 81 221 1.0 7.0 0.00 0.00 0.00 40 1013.1
20260506223056 82 0 0.0 6.0 0.00 0.00 0.00 38 1016.9
20260506223025 82 202 0.0 6.0 0.00 0.00 0.00 38 1013.1
20260506221617 82 142 2.0 10.0 0.00 0.00 0.00 34 1016.9
20260506221524 83 144 2.0 9.0 0.00 0.00 0.00 35 1013.2
20260506220110 83 0 0.0 5.0 0.00 0.00 0.00 31 1017.1
20260506220023 83 156 0.0 4.0 0.00 0.00 0.00 32 1013.4
20260506214554 84 0 0.0 3.0 0.00 0.00 0.00 31 1017.2
20260506214522 84 234 0.0 3.0 0.00 0.00 0.00 34 1013.7
20260506213105 83 237 0.0 7.0 0.00 0.00 0.00 33 1017.6
20260506213020 83 237 1.0 6.0 0.00 0.00 0.00 33 1013.9
20260506211559 82 0 0.0 4.0 0.00 0.00 0.00 34 1017.8
20260506211516 82 140 0.0 2.0 0.00 0.00 0.00 35 1014.1
20260506210104 82 0 0.0 4.0 0.00 0.00 0.00 35 1017.9
20260506210016 82 144 0.0 4.0 0.00 0.00 0.00 35 1014.3
20260506204605 81 0 0.0 2.0 0.00 0.00 0.00 35 1018.0
20260506204515 81 299 0.0 2.0 0.00 0.00 0.00 35 1014.4
20260506203053 80 300 0.0 3.0 0.00 0.00 0.00 35 1018.2
20260506203013 80 300 0.0 3.0 0.00 0.00 0.00 37 1014.6
20260506201554 79 0 0.0 2.0 0.00 0.00 0.00 40 1018.4
20260506201511 79 299 0.0 2.0 0.00 0.00 0.00 40 1014.9
20260506200052 78 0 0.0 7.0 0.00 0.00 0.00 38 1018.6
20260506200010 78 300 0.0 6.0 0.00 0.00 0.00 39 1015.1
20260506194556 78 0 0.0 2.0 0.00 0.00 0.00 37 1018.8
20260506194503 78 236 0.0 2.0 0.00 0.00 0.00 38 1015.5
20260506193059 77 236 0.0 4.0 0.00 0.00 0.00 41 1015.6
20260506193055 77 0 0.0 4.0 0.00 0.00 0.00 40 1019.1
20260506191604 76 25 0.0 2.0 0.00 0.00 0.00 42 1019.2
20260506191557 76 25 0.0 2.0 0.00 0.00 0.00 42 1016.0
20260506190058 76 0 0.0 3.0 0.00 0.00 0.00 45 1019.5
20260506190052 76 26 0.0 3.0 0.00 0.00 0.00 45 1016.1
20260506184612 74 0 0.0 2.0 0.00 0.00 0.00 45 1019.6
20260506184549 74 28 0.0 2.0 0.00 0.00 0.00 45 1016.2
20260506183050 73 0 0.0 3.0 0.00 0.00 0.00 44 1019.8
20260506183045 73 30 0.0 2.0 0.00 0.00 0.00 45 1016.4
20260506181554 72 0 0.0 2.0 0.00 0.00 0.00 44 1019.9
20260506181540 72 30 0.0 2.0 0.00 0.00 0.00 44 1016.7
20260506180052 71 30 0.0 3.0 0.00 0.00 0.00 47 1020.1
20260506180038 71 30 0.0 2.0 0.00 0.00 0.00 48 1016.7
20260506174549 70 82 0.0 2.0 0.00 0.00 0.00 50 1020.0
20260506174535 70 101 0.0 2.0 0.00 0.00 0.00 50 1016.7
20260506173052 69 0 0.0 3.0 0.00 0.00 0.00 48 1020.0
20260506173032 69 107 0.0 3.0 0.00 0.00 0.00 49 1016.8
20260506171606 68 0 0.0 2.0 0.00 0.00 0.00 55 1020.0
20260506171529 68 107 0.0 1.0 0.00 0.00 0.00 54 1016.8
20260506170059 66 0 0.0 4.0 0.00 0.00 0.00 56 1019.9
20260506170024 66 107 0.0 4.0 0.00 0.00 0.00 57 1016.8
20260506164551 65 105 0.0 2.0 0.00 0.00 0.00 56 1020.0
20260506164521 65 105 0.0 2.0 0.00 0.00 0.00 56 1016.8
20260506163107 64 30 0.0 3.0 0.00 0.00 0.00 61 1019.9
20260506163014 64 30 0.0 3.0 0.00 0.00 0.00 62 1016.8
20260506161557 61 0 0.0 1.0 0.00 0.00 0.00 70 1019.8
20260506161510 61 29 0.0 1.0 0.00 0.00 0.00 71 1016.8
20260506160101 58 0 0.0 2.0 0.00 0.00 0.00 80 1019.8
20260506160006 57 29 0.0 2.0 0.00 0.00 0.00 82 1016.8
20260506154603 55 29 0.0 1.0 0.00 0.00 0.00 90 1016.8
20260506154554 55 0 0.0 1.0 0.00 0.00 0.00 90 1019.8
20260506153055 53 29 0.0 0.0 0.00 0.00 0.00 92 1016.8
20260506153053 53 0 0.0 0.0 0.00 0.00 0.00 91 1019.7
20260506151558 52 0 0.0 0.0 0.00 0.00 0.00 91 1019.8
20260506151552 52 29 0.0 0.0 0.00 0.00 0.00 92 1016.9
20260506150059 50 28 0.0 1.0 0.00 0.00 0.00 92 1016.9
20260506150056 50 0 0.0 1.0 0.00 0.00 0.00 91 1019.8
20260506144603 48 28 0.0 0.0 0.00 0.00 0.00 91 1016.9
20260506143101 47 0 0.0 0.0 0.00 0.00 0.00 89 1019.7
20260506143053 47 28 0.0 0.0 0.00 0.00 0.00 90 1016.8
20260506141554 46 0 0.0 0.0 0.00 0.00 0.00 88 1019.7
20260506141549 46 28 0.0 0.0 0.00 0.00 0.00 89 1016.9
20260506140105 45 0 0.0 0.0 0.00 0.00 0.00 87 1019.6
20260506134553 44 0 0.0 0.0 0.00 0.00 0.00 86 1019.3
20260506134544 44 28 0.0 0.0 0.00 0.00 0.00 87 1016.6
20260506133056 44 0 0.0 0.0 0.00 0.00 0.00 86 1019.3
20260506133047 44 28 0.0 0.0 0.00 0.00 0.00 86 1016.4
20260506131605 45 0 0.0 0.0 0.00 0.00 0.00 86 1019.1
20260506131544 45 178 0.0 0.0 0.00 0.00 0.00 86 1016.4
20260506130059 45 0 0.0 0.0 0.00 0.00 0.00 86 1019.0
20260506130052 45 178 0.0 0.0 0.00 0.00 0.00 86 1016.3
20260506124557 45 0 0.0 0.0 0.00 0.00 0.00 85 1018.9
20260506124538 45 178 0.0 0.0 0.00 0.00 0.00 86 1016.2
20260506123053 45 0 0.0 0.0 0.00 0.00 0.00 85 1018.6
20260506123040 45 178 0.0 0.0 0.00 0.00 0.00 86 1016.0
20260506121602 46 0 0.0 0.0 0.00 0.00 0.00 85 1018.5
20260506121534 46 178 0.0 0.0 0.00 0.00 0.00 86 1016.0
20260506120056 46 0 0.0 0.0 0.00 0.00 0.00 85 1018.5
20260506120034 46 178 0.0 0.0 0.00 0.06 0.00 85 1016.0
20260506114559 46 0 0.0 0.0 0.00 0.06 0.00 85 1018.5
20260506114531 46 178 0.0 0.0 0.00 0.06 0.00 85 1016.0
20260506113054 46 0 0.0 0.0 0.00 0.06 0.00 85 1018.5
20260506113036 46 178 0.0 0.0 0.00 0.06 0.00 85 1015.9
20260506111555 47 0 0.0 0.0 0.00 0.06 0.00 84 1018.4
20260506111532 47 178 0.0 0.0 0.00 0.06 0.00 85 1015.8
20260506110054 47 0 0.0 0.0 0.00 0.06 0.00 84 1018.2
20260506110038 47 178 0.0 0.0 0.00 0.06 0.00 85 1015.9
20260506104556 47 0 0.0 0.0 0.00 0.06 0.00 84 1018.4
20260506104527 47 178 0.0 0.0 0.00 0.06 0.00 84 1015.8
20260506103055 48 0 0.0 0.0 0.00 0.06 0.00 83 1018.3
20260506103025 48 178 0.0 0.0 0.00 0.06 0.00 84 1015.7
20260506101551 48 0 0.0 0.0 0.00 0.06 0.00 83 1018.2
20260506101524 48 178 0.0 0.0 0.00 0.06 0.00 84 1015.6
20260506100105 48 0 0.0 0.0 0.00 0.06 0.00 83 1018.1
20260506100021 48 178 0.0 0.0 0.00 0.07 0.00 83 1015.6
20260506094552 49 0 0.0 0.0 0.00 0.07 0.00 83 1018.1
20260506094519 49 178 0.0 0.0 0.00 0.07 0.00 83 1015.6
20260506093051 49 0 0.0 0.0 0.00 0.07 0.00 82 1018.1
20260506093023 49 178 0.0 0.0 0.00 0.07 0.00 83 1015.7
20260506091554 50 0 0.0 0.0 0.00 0.07 0.00 82 1018.1
20260506091514 50 178 0.0 0.0 0.00 0.07 0.00 83 1015.8
20260506090058 50 0 0.0 0.0 0.00 0.07 0.00 82 1018.3
20260506090013 50 178 0.0 0.0 0.00 0.07 0.00 83 1016.1
20260506084550 51 0 0.0 0.0 0.00 0.07 0.00 82 1018.2
20260506084511 51 178 0.0 0.0 0.00 0.07 0.00 83 1016.1
20260506083101 51 0 0.0 0.0 0.00 0.07 0.00 82 1018.4
20260506083009 51 178 0.0 0.0 0.00 0.07 0.00 83 1016.2
20260506081554 52 0 0.0 0.0 0.00 0.07 0.00 83 1018.4
20260506081513 52 178 0.0 0.0 0.00 0.07 0.00 83 1016.2
20260506073058 52 0 0.0 2.0 0.00 0.07 0.00 81 1018.8
20260506073005 52 178 0.0 2.0 0.00 0.07 0.00 82 1016.5
20260506071556 52 0 0.0 1.0 0.00 0.07 0.00 82 1018.5
20260506071502 52 178 0.0 1.0 0.00 0.07 0.00 82 1016.4